1500580800.77,29532,23.88,74308.8,6.25,-8.63,-8.17,0,*70
1500580802.0,29533,23.88,74310.8,6.23,-8.55,-8.17,0,*72
1500580803.24,29534,23.88,74310.3,6.25,-8.51,-8.11,0,*71
1500580804.49,29535,23.88,74310.5,6.23,-8.37,-8.03,0,*75
1500580805.76,29536,23.88,74308.8,6.23,-8.51,-7.99,0,*7A
1500580807.0,29537,23.88,74312.3,6.23,-8.37,-7.95,0,*77
1500580808.25,29538,23.88,74312.3,6.23,-8.25,-7.73,0,*73
1500580809.48,29539,23.88,74314.0,6.23,-8.25,-7.87,0,*79
1500580810.7,29540,23.88,74312.0,6.23,-8.29,-7.87,0,*7B
1500580811.94,29541,23.88,74310.3,6.23,-8.37,-7.95,0,*76
1500580813.17,29542,23.88,74308.8,6.23,-8.37,-7.87,0,*76
1500580814.39,29543,23.88,74312.0,6.23,-8.29,-7.87,0,*78
1500580815.61,29544,23.88,74312.0,6.23,-8.29,-7.87,0,*7F
1500580816.86,29545,23.88,74312.0,6.23,-8.41,-7.99,0,*7F
1500580818.06,29546,23.88,74312.3,6.25,-8.37,-7.87,0,*74
1500580819.3,29547,23.88,74310.8,6.23,-8.41,-7.95,0,*71
1500580820.55,29548,23.88,74312.0,6.23,-8.55,-7.99,0,*77
1500580821.77,29549,23.88,74310.3,6.25,-8.55,-8.03,0,*7C
1500580823.01,29550,23.88,74308.0,6.25,-8.51,-8.03,0,*70
1500580824.26,29551,23.88,74312.0,6.23,-8.37,-7.95,0,*77
1500580825.5,29552,23.88,74312.0,6.23,-8.37,-7.95,0,*74
1500580826.73,29553,23.88,74312.5,6.23,-8.37,-7.87,0,*76
1500580827.95,29554,23.88,74312.5,6.23,-8.41,-7.87,0,*70
1500580829.2,29555,23.88,74310.5,6.23,-8.37,-7.95,0,*73
1500580830.44,29556,23.88,74312.3,6.25,-8.51,-8.03,0,*76
1500580831.66,29557,23.88,74310.3,6.25,-8.55,-8.03,0,*73
1500580832.93,29558,23.88,74310.0,6.23,-8.51,-7.99,0,*72
1500580834.15,29559,23.88,74308.5,6.25,-8.37,-7.95,0,*79
1500580835.4,29560,23.88,74312.8,6.23,-8.41,-7.99,0,*78
1500580836.65,29561,23.88,74308.8,6.23,-8.37,-7.99,0,*78
1500580837.87,29562,23.88,74310.5,6.23,-8.37,-7.87,0,*74
1500580839.1,29563,23.88,74308.3,6.23,-8.41,-7.87,0,*74
1500580840.32,29564,23.88,74308.3,6.23,-8.37,-7.87,0,*72
1500580841.55,29565,23.88,74312.0,6.23,-8.25,-7.83,0,*74
1500580842.77,29566,23.88,74308.5,6.23,-8.29,-7.87,0,*7F
1500580844.01,29567,23.88,74310.0,6.23,-8.37,-7.99,0,*7E
1500580845.22,29568,23.88,74312.0,6.25,-8.37,-7.87,0,*78
1500580846.46,29569,23.88,74310.5,6.23,-8.41,-7.99,0,*71
1500580847.7,29570,23.88,74310.5,6.23,-8.41,-7.95,0,*75
1500580848.91,29571,23.88,74310.3,6.25,-8.37,-7.87,0,*70
1500580850.13,29572,23.88,74310.5,6.25,-8.37,-7.95,0,*70
1500580851.35,29573,23.88,74312.3,6.25,-8.37,-7.95,0,*71
1500580852.57,29574,23.88,74312.3,6.25,-8.41,-7.99,0,*7B
1500580853.79,29575,23.88,74308.5,6.25,-8.37,-7.95,0,*77
1500580855.01,29576,23.88,74310.8,6.23,-8.37,-7.87,0,*71
1500580856.24,29577,23.88,74310.5,6.25,-8.41,-7.95,0,*74
1500580857.46,29578,23.88,74308.8,6.23,-8.37,-7.87,0,*7F
1500580858.68,29579,23.88,74310.0,6.25,-8.41,-7.95,0,*7A
1500580859.88,29580,23.88,74308.8,6.25,-8.55,-8.17,0,*7C
1500580861.12,29581,23.88,74310.3,6.23,-8.41,-7.95,0,*7B
1500580862.34,29582,23.88,74312.0,6.25,-8.37,-7.95,0,*7F
1500580863.58,29583,23.88,74308.3,6.23,-8.37,-7.95,0,*78
1500580864.81,29584,23.88,74310.3,6.25,-8.25,-7.73,0,*72
1500580866.03,29585,23.88,74312.3,6.23,-8.25,-7.83,0,*7A
1500580867.25,29586,23.88,74308.5,6.25,-8.37,-7.95,0,*7B
1500580868.48,29587,23.88,74314.0,6.25,-8.37,-7.99,0,*76
1500580869.73,29588,23.88,74312.8,6.25,-8.51,-7.99,0,*79
1500580870.92,29589,23.88,74312.3,6.25,-8.63,-8.17,0,*70
1500580872.14,29590,23.88,74314.3,6.25,-8.81,-8.29,0,*79
1500580873.36,29591,23.88,74312.0,6.23,-8.75,-8.25,0,*79
1500580874.55,29592,23.88,74312.5,6.25,-8.67,-8.17,0,*7E
1500580875.77,29593,23.88,74310.5,6.25,-8.63,-8.11,0,*7D
1500580877.0,29594,23.88,74310.5,6.25,-8.55,-8.11,0,*7F
1500580878.25,29595,23.88,74310.8,6.25,-8.51,-8.11,0,*7A
1500580879.47,29596,23.88,74314.0,6.25,-8.55,-8.03,0,*7E
1500580880.72,29597,23.88,74310.5,6.23,-8.63,-7.99,0,*70
1500580881.94,29598,23.88,74312.8,6.23,-8.63,-8.17,0,*76
1500580883.15,29599,23.88,74312.8,6.23,-8.63,-8.25,0,*76
1500580884.4,29600,23.88,74312.3,6.23,-8.81,-8.29,0,*75
1500580885.64,29601,23.88,74314.8,6.23,-8.63,-8.11,0,*73
1500580886.86,29602,23.88,74312.3,6.23,-8.63,-8.17,0,*76
1500580888.06,29603,23.88,74310.5,6.25,-8.63,-8.25,0,*70
1500580889.25,29604,23.88,74312.0,6.25,-8.67,-8.25,0,*73
1500580890.5,29605,23.88,74308.8,6.23,-8.55,-8.11,0,*72
1500580891.77,29606,23.88,74312.8,6.23,-8.51,-8.03,0,*76
1500580893.02,29607,23.88,74310.5,6.23,-8.55,-8.11,0,*70
1500580894.24,29608,23.88,74314.8,6.23,-8.67,-8.17,0,*78
1500580895.48,29609,23.88,74310.0,6.23,-8.63,-8.03,0,*78
1500580896.7,29610,23.88,74312.3,6.25,-8.67,-8.11,0,*71
1500580897.92,29611,23.88,74312.5,6.23,-8.63,-8.25,0,*75
1500580899.14,29612,23.88,74308.0,6.23,-8.67,-8.25,0,*72
1500580900.38,29613,23.88,74314.5,6.23,-8.81,-8.29,0,*77
1500580901.58,29614,23.88,74314.5,6.25,-8.89,-8.41,0,*70
1500580902.8,29615,23.88,74314.5,6.23,-8.93,-8.41,0,*7C
1500580903.99,29616,23.88,74308.8,6.21,-8.97,-8.55,0,*7C
1500580905.2,29617,23.88,74310.3,6.21,-9.11,-8.59,0,*7E
1500580906.4,29618,23.88,74310.3,6.21,-8.93,-8.45,0,*77
1500580907.62,29619,23.88,74312.3,6.23,-8.93,-8.41,0,*70
1500580908.81,29620,23.88,74312.3,6.19,-8.97,-8.55,0,*72
1500580910.06,29621,23.88,74310.5,6.23,-8.97,-8.51,0,*7E
1500580911.27,29622,23.88,74310.5,6.23,-9.05,-8.55,0,*73
1500580912.49,29623,23.88,74312.3,6.23,-9.05,-8.55,0,*72
1500580913.7,29624,23.88,74312.8,6.23,-9.19,-8.67,0,*79
1500580914.95,29625,23.88,74312.8,6.23,-9.11,-8.63,0,*74
1500580916.17,29626,23.88,74312.5,6.19,-9.15,-8.71,0,*79
1500580917.38,29627,23.88,74312.0,6.21,-9.23,-8.81,0,*79
1500580918.57,29628,23.88,74312.0,6.21,-9.23,-8.71,0,*79
1500580919.77,29629,23.88,74312.8,6.19,-9.23,-8.71,0,*73
1500580920.96,29630,23.88,74308.0,6.19,-9.23,-8.71,0,*7B
1500580922.15,29631,23.88,74308.5,6.19,-9.23,-8.71,0,*7A
1500580923.37,29632,23.88,74310.0,6.19,-9.27,-8.81,0,*72
1500580924.56,29633,23.88,74310.3,6.19,-9.27,-8.71,0,*7C
1500580925.78,29634,23.88,74308.8,6.19,-9.15,-8.71,0,*7A
1500580927.01,29635,23.88,74312.8,6.19,-9.15,-8.71,0,*7B
1500580928.22,29636,23.88,74310.0,6.19,-9.23,-8.81,0,*72
1500580929.45,29637,23.88,74308.5,6.17,-9.27,-8.89,0,*71
1500580930.69,29638,23.88,74314.5,6.17,-9.41,-8.97,0,*71
1500580931.93,29639,23.88,74310.5,6.17,-9.45,-8.97,0,*74
1500580933.15,29640,23.88,74312.5,6.15,-9.49,-9.01,0,*7A
1500580934.4,29641,23.88,74312.0,6.17,-9.45,-9.01,0,*75
1500580935.62,29642,23.88,74310.5,6.17,-9.31,-8.89,0,*74
1500580936.87,29643,23.88,74310.5,6.17,-9.41,-8.93,0,*79
1500580938.11,29644,23.88,74314.0,6.17,-9.45,-8.89,0,*71
1500580939.34,29645,23.88,74312.0,6.15,-9.37,-9.01,0,*76
1500580940.59,29646,23.88,74310.8,6.17,-9.41,-8.85,0,*7B
1500580941.78,29647,23.88,74308.0,6.15,-9.31,-8.89,0,*73
1500580943.0,29648,23.88,74314.5,6.15,-9.37,-8.93,0,*71
1500580944.22,29649,23.88,74308.0,6.15,-9.45,-8.89,0,*7E
1500580945.45,29650,23.88,74308.5,6.15,-9.37,-9.01,0,*72
1500580946.69,29651,23.88,74312.5,6.13,-9.45,-9.01,0,*70
1500580947.91,29652,23.88,74314.0,6.15,-9.45,-8.93,0,*7F
1500580949.12,29653,23.88,74310.5,6.15,-9.45,-9.05,0,*70
1500580950.34,29654,23.88,74312.0,6.15,-9.45,-9.05,0,*77
1500580951.56,29655,23.88,74308.8,6.15,-9.49,-9.01,0,*7E
1500580952.78,29656,23.88,74310.8,6.15,-9.49,-9.05,0,*79
1500580954.02,29657,23.88,74310.8,6.09,-9.61,-9.05,0,*7F
1500580955.25,29658,23.88,74310.8,6.13,-9.57,-9.05,0,*7E
1500580956.49,29659,23.88,74314.5,6.13,-9.49,-9.05,0,*70
1500580957.73,29660,23.88,74312.3,6.09,-9.49,-9.05,0,*71
1500580958.98,29661,23.88,74314.0,6.13,-9.45,-8.89,0,*72
1500580960.22,29662,23.88,74308.0,6.09,-9.37,-8.75,0,*7C
1500580961.43,29663,23.88,74314.8,6.13,-9.19,-8.75,0,*7A
1500580962.65,29664,23.88,74312.0,6.13,-9.19,-8.75,0,*7D
1500580963.88,29665,23.88,74312.5,6.13,-9.31,-8.81,0,*7D
1500580965.12,29666,23.88,74308.8,6.13,-9.49,-9.05,0,*7C
1500580966.39,29667,23.88,74308.3,6.09,-9.61,-9.11,0,*79
1500580967.63,29668,23.88,74310.0,6.09,-9.49,-9.05,0,*79
1500580968.88,29669,23.88,74312.0,6.09,-9.41,-8.97,0,*7A
1500580970.13,29670,23.88,74314.0,6.09,-9.41,-8.93,0,*76
1500580971.38,29671,23.88,74310.0,6.09,-9.41,-8.97,0,*73
1500580972.63,29672,23.88,74312.0,6.09,-9.37,-8.93,0,*75
1500580973.88,29673,23.88,74314.0,6.09,-9.37,-8.85,0,*73
1500580975.13,29674,23.88,74312.0,6.09,-9.37,-8.93,0,*73
1500580976.38,29675,23.88,74310.0,6.09,-9.37,-8.93,0,*72
1500580977.6,29676,23.88,74308.3,6.13,-9.31,-8.93,0,*7C
1500580978.84,29677,23.88,74312.0,6.13,-9.23,-8.81,0,*7D
1500580980.08,29678,23.88,74308.8,6.09,-9.27,-8.81,0,*7D
1500580981.31,29679,23.88,74312.8,6.13,-9.23,-8.81,0,*73
1500580982.56,29680,23.88,74312.0,6.09,-9.37,-8.93,0,*78
1500580983.8,29681,23.88,74314.5,6.13,-9.11,-8.75,0,*7E
1500580985.03,29682,23.88,74312.8,6.09,-9.27,-8.85,0,*7C
1500580986.27,29683,23.88,74312.8,6.09,-9.27,-8.81,0,*79
1500580987.52,29684,23.88,74310.3,6.09,-9.15,-8.71,0,*70
1500580988.73,29685,23.88,74310.0,6.13,-9.19,-8.67,0,*71
1500580989.95,29686,23.88,74312.8,6.13,-9.19,-8.75,0,*71
1500580991.2,29687,23.88,74312.3,6.09,-9.37,-8.85,0,*78
1500580992.41,29688,23.88,74308.5,6.13,-9.23,-8.75,0,*76
1500580993.65,29689,23.88,74308.5,6.09,-9.23,-8.81,0,*77
1500580994.9,29690,23.88,74310.3,6.09,-9.23,-8.81,0,*7F
1500580996.11,29691,23.88,74310.3,6.09,-9.05,-8.55,0,*73
1500580997.34,29692,23.88,74308.5,6.09,-8.97,-8.45,0,*7B
1500580998.55,29693,23.88,74314.5,6.13,-9.05,-8.67,0,*7B
1500580999.76,29694,23.88,74310.3,6.13,-9.19,-8.67,0,*71
1500581000.97,29695,23.88,74312.5,6.13,-9.05,-8.55,0,*7C
1500581002.25,29696,23.88,74310.3,6.09,-9.11,-8.51,0,*75
1500581003.49,29697,23.88,74310.5,6.09,-8.81,-8.29,0,*73
1500581004.71,29698,23.88,74312.3,6.09,-8.71,-8.33,0,*78
1500581005.94,29699,23.88,74308.3,6.13,-8.81,-8.29,0,*76
1500581007.16,29700,23.88,74308.5,6.13,-8.75,-8.25,0,*70
1500581008.4,29701,23.88,74314.3,6.13,-8.37,-7.95,0,*73
1500581009.64,29702,23.88,74308.5,6.17,-8.37,-8.03,0,*74
1500581010.83,29703,23.88,74312.5,6.15,-8.67,-8.25,0,*76
1500581012.02,29704,23.88,74310.5,6.15,-8.55,-8.17,0,*71
1500581013.29,29705,23.88,74308.0,6.17,-8.51,-8.11,0,*70
1500581014.53,29706,23.88,74310.8,6.17,-8.45,-7.95,0,*75
1500581015.78,29707,23.88,74312.5,6.17,-8.45,-8.07,0,*70
1500581017.02,29708,23.88,74314.3,6.17,-8.45,-7.95,0,*7B
1500581018.27,29709,23.88,74312.0,6.17,-8.59,-8.07,0,*73
1500581019.5,29710,23.88,74314.8,6.19,-8.55,-8.07,0,*79
1500581020.73,29711,23.88,74310.5,6.21,-8.55,-8.07,0,*73
1500581021.94,29712,23.88,74312.3,6.21,-8.55,-8.03,0,*74
1500581023.17,29713,23.88,74310.3,6.19,-8.41,-8.07,0,*7F
1500581024.38,29714,23.88,74308.3,6.21,-8.41,-8.03,0,*77
1500581025.6,29715,23.88,74308.5,6.21,-8.59,-8.07,0,*7B
1500581026.81,29716,23.88,74310.5,6.19,-8.71,-8.21,0,*7D
1500581027.99,29717,23.88,74310.3,6.21,-8.67,-8.33,0,*73
1500581029.22,29718,23.88,74308.8,6.21,-8.55,-8.07,0,*7A
1500581030.43,29719,23.88,74312.3,6.21,-8.41,-8.03,0,*7A
1500581031.64,29720,23.88,74312.5,6.21,-8.29,-7.91,0,*7A
1500581032.83,29721,23.88,74310.0,6.21,-8.29,-7.87,0,*7C
1500581034.06,29722,23.88,74308.5,6.23,-8.29,-7.83,0,*79
1500581035.3,29723,23.88,74308.3,6.23,-8.37,-7.95,0,*70
1500581036.5,29724,23.88,74314.5,6.25,-8.37,-7.87,0,*72
1500581037.7,29725,23.88,74312.0,6.25,-8.37,-7.87,0,*73
1500581038.9,29726,23.88,74308.8,6.25,-8.17,-7.83,0,*76
1500581040.1,29727,23.88,74308.5,6.25,-8.29,-7.87,0,*7E
1500581041.3,29728,23.88,74308.5,6.25,-8.29,-7.87,0,*71
1500581042.55,29729,23.88,74314.8,6.25,-8.51,-8.03,0,*7C
1500581043.77,29730,23.88,74310.0,6.25,-8.37,-7.99,0,*78
1500581044.99,29731,23.88,74312.0,6.25,-8.41,-7.99,0,*78
1500581046.26,29732,23.88,74312.8,6.27,-8.51,-7.99,0,*78
1500581047.48,29733,23.88,74314.5,6.29,-8.45,-7.95,0,*7E
1500581048.69,29734,23.88,74316.0,6.29,-8.45,-7.99,0,*75
1500581049.94,29735,23.88,74312.3,6.27,-8.37,-7.99,0,*7F
1500581051.18,29736,23.88,74308.5,6.27,-8.37,-7.95,0,*70
1500581052.4,29737,23.88,74314.3,6.29,-8.45,-7.99,0,*76
1500581053.59,29738,23.88,74312.0,6.29,-8.71,-8.25,0,*76
1500581054.78,29739,23.88,74308.8,6.29,-8.75,-8.33,0,*74
1500581055.98,29740,23.88,74314.5,6.29,-8.89,-8.45,0,*78
1500581057.23,29741,23.88,74310.0,6.27,-8.89,-8.51,0,*72
1500581058.48,29742,23.88,74314.5,6.27,-8.93,-8.51,0,*7A
1500581059.7,29743,23.88,74312.8,6.27,-8.93,-8.45,0,*7E
1500581060.95,29744,23.88,74312.3,6.27,-9.05,-8.51,0,*72
1500581062.17,29745,23.88,74314.3,6.27,-9.05,-8.59,0,*7B
1500581063.39,29746,23.88,74314.8,6.27,-9.05,-8.59,0,*78
1500581064.58,29747,23.88,74312.8,6.29,-9.05,-8.59,0,*77
1500581065.8,29748,23.88,74310.8,6.25,-9.11,-8.63,0,*78
1500581067.03,29749,23.88,74312.8,6.27,-9.01,-8.59,0,*73
1500581068.22,29750,23.88,74310.5,6.25,-9.19,-8.67,0,*7D
1500581069.43,29751,23.88,74312.3,6.23,-9.19,-8.75,0,*79
1500581070.63,29752,23.88,74312.3,6.25,-9.23,-8.89,0,*76
1500581071.86,29753,23.88,74312.0,6.25,-9.37,-8.93,0,*79
1500581073.06,29754,23.88,74312.8,6.25,-9.31,-8.89,0,*73
1500581074.28,29755,23.88,74312.8,6.23,-9.31,-8.89,0,*74
1500581075.53,29756,23.88,74314.3,6.23,-9.37,-8.93,0,*7A
1500581076.78,29757,23.88,74312.0,6.23,-9.37,-8.93,0,*7B
1500581078.0,29758,23.88,74312.8,6.23,-9.31,-8.89,0,*79
1500581079.25,29759,23.88,74308.5,6.23,-9.37,-8.89,0,*7E
1500581080.45,29760,23.88,74310.0,6.25,-9.31,-8.93,0,*7F
1500581081.7,29761,23.88,74312.8,6.23,-9.37,-8.89,0,*75
1500581082.95,29762,23.88,74312.3,6.23,-9.45,-8.97,0,*7C
1500581084.19,29763,23.88,74310.5,6.21,-9.49,-9.11,0,*7C
1500581085.42,29764,23.88,74314.0,6.21,-9.53,-9.11,0,*70
1500581086.65,29765,23.88,74312.0,6.19,-9.49,-9.01,0,*70
1500581087.89,29766,23.88,74308.3,6.21,-9.49,-9.11,0,*79
1500581089.13,29767,23.88,74312.8,6.21,-9.41,-9.11,0,*70
1500581090.35,29768,23.88,74312.3,6.21,-9.41,-8.97,0,*70
1500581091.54,29769,23.88,74312.3,6.21,-9.23,-8.85,0,*76
1500581092.76,29770,23.88,74310.5,6.19,-9.23,-8.81,0,*71
1500581093.96,29771,23.88,74308.0,6.19,-9.01,-8.59,0,*75
1500581095.15,29772,23.88,74314.8,6.19,-9.01,-8.59,0,*76
1500581096.37,29773,23.88,74306.3,6.21,-9.11,-8.59,0,*7D
1500581097.56,29774,23.88,74308.3,6.19,-9.23,-8.67,0,*7D
1500581098.75,29775,23.88,74310.8,6.21,-9.23,-8.71,0,*70
1500581099.96,29776,23.88,74312.5,6.21,-9.15,-8.67,0,*71
1500581101.15,29777,23.88,74310.5,6.21,-8.97,-8.59,0,*76
1500581102.33,29778,23.88,74312.0,6.21,-8.97,-8.59,0,*79
1500581103.55,29779,23.88,74310.3,6.21,-9.11,-8.59,0,*77
1500581104.74,29780,23.88,74312.0,6.21,-9.23,-8.71,0,*7A
1500581105.94,29781,23.88,74308.8,6.19,-9.27,-8.85,0,*7F
1500581107.18,29782,23.88,74310.5,6.23,-9.11,-8.63,0,*78
1500581108.4,29783,23.88,74308.8,6.23,-8.97,-8.55,0,*73
1500581109.61,29784,23.88,74308.0,6.23,-9.19,-8.75,0,*71
1500581110.83,29785,23.81,74308.3,6.23,-9.19,-8.75,0,*70
1500581112.04,29786,23.88,74312.0,6.23,-9.19,-8.67,0,*70
1500581113.26,29787,23.88,74314.3,6.23,-9.19,-8.67,0,*71
1500581114.48,29788,23.88,74312.3,6.23,-9.31,-8.89,0,*74
1500581115.7,29789,23.88,74312.3,6.21,-9.41,-8.97,0,*7F
1500581116.92,29790,23.88,74312.5,6.21,-9.41,-8.97,0,*77
1500581118.13,29791,23.88,74312.3,6.21,-9.49,-9.01,0,*70
1500581119.35,29792,23.88,74312.8,6.19,-9.53,-9.01,0,*73
1500581120.57,29793,23.88,74312.5,6.21,-9.49,-9.01,0,*72
1500581121.79,29794,23.88,74312.3,6.21,-9.49,-9.01,0,*75
1500581123.02,29795,23.88,74308.3,6.21,-9.61,-9.15,0,*7B
1500581124.26,29796,23.88,74312.0,6.19,-9.53,-9.15,0,*72
1500581125.48,29797,23.88,74308.8,6.19,-9.67,-9.15,0,*74
1500581126.72,29798,23.88,74310.0,6.19,-9.61,-9.15,0,*7D
1500581127.96,29799,23.88,74312.8,6.19,-9.61,-9.11,0,*78
1500581129.2,29800,23.88,74312.5,6.19,-9.53,-9.15,0,*72
1500581130.39,29801,23.88,74310.8,6.19,-9.67,-9.23,0,*71
1500581131.6,29802,23.88,74312.3,6.19,-9.67,-9.15,0,*77
1500581132.8,29803,23.88,74312.8,6.19,-9.75,-9.23,0,*70
1500581134.05,29804,23.88,74312.3,6.17,-9.57,-9.15,0,*7C
1500581135.31,29805,23.88,74308.5,6.17,-9.57,-9.15,0,*7D
1500581136.55,29806,23.88,74310.3,6.17,-9.53,-9.19,0,*76
1500581137.79,29807,23.88,74310.0,6.17,-9.53,-9.05,0,*7A
1500581139.05,29808,23.88,74310.8,6.17,-9.53,-9.15,0,*74
1500581140.27,29809,23.88,74308.3,6.17,-9.67,-9.27,0,*73
1500581141.46,29810,23.88,74308.8,6.15,-9.71,-9.23,0,*7A
1500581142.72,29811,23.88,74308.5,6.17,-9.57,-9.15,0,*78
1500581143.98,29812,23.88,74310.8,6.17,-9.57,-9.15,0,*7B
1500581145.21,29813,23.88,74308.5,6.15,-9.61,-9.11,0,*79
1500581146.41,29814,23.88,74312.8,6.15,-9.71,-9.23,0,*7E
1500581147.62,29815,23.88,74312.3,6.15,-9.49,-9.05,0,*70
1500581148.87,29816,23.88,74312.3,6.17,-9.41,-8.89,0,*7C
1500581150.12,29817,23.88,74314.0,6.17,-9.41,-9.01,0,*7C
1500581151.36,29818,23.88,74312.3,6.15,-9.49,-9.11,0,*78
1500581152.57,29819,23.88,74308.5,6.15,-9.57,-9.19,0,*7E
1500581153.81,29820,23.88,74314.3,6.15,-9.49,-9.11,0,*73
1500581155.05,29821,23.88,74308.8,6.17,-9.45,-8.97,0,*73
1500581156.28,29822,23.88,74314.0,6.15,-9.37,-9.01,0,*79
1500581157.49,29823,23.88,74308.5,6.15,-9.45,-9.05,0,*79
1500581158.72,29824,23.88,74308.0,6.15,-9.37,-9.01,0,*7F
1500581159.96,29825,23.88,74310.8,6.17,-9.53,-9.01,0,*7E
1500581161.18,29826,23.88,74314.8,6.15,-9.37,-8.93,0,*77
1500581162.43,29827,23.88,74310.8,6.17,-9.41,-8.97,0,*71
1500581163.64,29828,23.88,74308.8,6.15,-9.49,-9.01,0,*7A
1500581164.87,29829,23.88,74308.0,6.17,-9.31,-8.89,0,*77
1500581166.09,29830,23.88,74314.3,6.17,-9.31,-8.97,0,*70
1500581167.31,29831,23.88,74312.5,6.17,-9.31,-8.85,0,*72
1500581168.56,29832,23.88,74308.8,6.17,-9.15,-8.71,0,*7C
1500581169.77,29833,23.88,74312.3,6.15,-9.31,-8.81,0,*76
1500581170.98,29834,23.88,74310.3,6.17,-9.05,-8.63,0,*78
1500581172.2,29835,23.81,74310.0,6.17,-9.05,-8.59,0,*70
1500581173.42,29836,23.88,74310.5,6.17,-9.01,-8.63,0,*7E
1500581174.64,29837,23.88,74310.5,6.19,-9.11,-8.59,0,*79
1500581175.89,29838,23.88,74312.0,6.17,-9.15,-8.63,0,*75
1500581177.14,29839,23.88,74310.5,6.17,-9.15,-8.59,0,*7D
1500581178.36,29840,23.88,74310.8,6.19,-9.15,-8.67,0,*70
1500581179.55,29841,23.88,74308.8,6.19,-9.23,-8.67,0,*74
1500581180.74,29842,23.88,74310.5,6.19,-9.27,-8.85,0,*7F
1500581181.96,29843,23.88,74308.8,6.19,-9.23,-8.81,0,*7E
1500581183.18,29844,23.88,74308.0,6.19,-9.27,-8.81,0,*7D
1500581184.4,29845,23.88,74310.8,6.19,-9.15,-8.59,0,*78
1500581185.59,29846,23.88,74310.8,6.21,-9.01,-8.55,0,*79
1500581186.81,29847,23.88,74310.5,6.21,-9.15,-8.59,0,*71
1500581188.0,29848,23.88,74308.8,6.19,-9.23,-8.67,0,*7D
1500581189.19,29849,23.88,74310.5,6.21,-9.01,-8.59,0,*7A
1500581190.39,29850,23.88,74314.0,6.19,-8.93,-8.45,0,*7E
1500581191.59,29851,23.88,74308.5,6.19,-8.85,-8.41,0,*7C
1500581192.78,29852,23.88,74308.5,6.21,-8.85,-8.33,0,*71
1500581193.99,29853,23.88,74308.8,6.21,-8.81,-8.41,0,*71
1500581195.19,29854,23.88,74310.3,6.21,-8.85,-8.41,0,*72
1500581196.38,29855,23.88,74308.5,6.21,-8.85,-8.33,0,*76
1500581197.58,29856,23.88,74308.0,6.21,-8.85,-8.41,0,*70
1500581198.79,29857,23.88,74308.5,6.21,-9.11,-8.59,0,*74
1500581200.01,29858,23.88,74310.5,6.21,-9.15,-8.67,0,*72
1500581201.26,29859,23.88,74312.0,6.23,-9.05,-8.51,0,*75
1500581202.47,29860,23.88,74310.0,6.23,-9.05,-8.55,0,*7B
1500581203.69,29861,23.88,74310.0,6.23,-9.19,-8.67,0,*76
1500581204.91,29862,23.88,74310.5,6.23,-9.05,-8.63,0,*7C
1500581206.12,29863,23.88,74310.0,6.23,-9.05,-8.55,0,*78
1500581207.34,29864,23.88,74308.5,6.23,-9.05,-8.55,0,*7F
1500581208.56,29865,23.88,74310.8,6.25,-9.11,-8.63,0,*78
1500581209.78,29866,23.88,74308.5,6.25,-8.97,-8.51,0,*75
1500581210.97,29867,23.88,74310.5,6.25,-9.19,-8.67,0,*76
1500581212.17,29868,23.88,74312.0,6.25,-9.31,-8.75,0,*70
1500581213.38,29869,23.88,74308.5,6.23,-9.19,-8.63,0,*7A
1500581214.6,29870,23.88,74308.5,6.23,-9.05,-8.63,0,*7F
1500581215.8,29871,23.81,74308.3,6.25,-9.05,-8.55,0,*7D
1500581216.98,29872,23.88,74308.0,6.25,-9.19,-8.67,0,*72
1500581218.2,29873,23.88,74312.5,6.25,-9.31,-8.81,0,*71
1500581219.4,29874,23.88,74312.8,6.25,-9.31,-8.89,0,*7E
1500581220.62,29875,23.88,74310.5,6.23,-9.31,-8.93,0,*72
1500581221.86,29876,23.88,74312.0,6.23,-9.57,-9.05,0,*7F
1500581223.1,29877,23.88,74310.8,6.23,-9.57,-9.05,0,*7E
1500581224.29,29878,23.88,74308.0,6.25,-9.71,-9.19,0,*7E
1500581225.54,29879,23.88,74308.5,6.25,-9.61,-9.11,0,*76
1500581226.76,29880,23.88,74308.8,6.25,-9.37,-8.89,0,*73
1500581227.98,29881,23.88,74312.5,6.23,-9.31,-8.75,0,*71
1500581229.18,29882,23.88,74310.5,6.25,-9.23,-8.93,0,*7F
1500581230.42,29883,23.88,74308.8,6.23,-9.31,-8.81,0,*78
1500581231.61,29884,23.88,74314.8,6.25,-9.23,-8.67,0,*72
1500581232.8,29885,23.88,74310.0,6.25,-9.19,-8.75,0,*79
1500581234.02,29886,23.88,74310.5,6.25,-9.31,-8.81,0,*7B
1500581235.26,29887,23.88,74308.8,6.23,-9.45,-9.05,0,*72
1500581236.48,29888,23.81,74310.8,6.25,-9.57,-8.97,0,*72
1500581237.72,29889,23.88,74310.5,6.25,-9.57,-9.11,0,*7C
1500581238.93,29890,23.88,74314.8,6.25,-9.61,-9.19,0,*79
1500581240.15,29891,23.88,74308.5,6.23,-9.71,-9.19,0,*7F
1500581241.35,29892,23.88,74314.5,6.25,-9.71,-9.23,0,*73
1500581242.55,29893,23.88,74310.0,6.25,-9.71,-9.23,0,*72
1500581243.74,29894,23.81,74310.3,6.25,-9.79,-9.31,0,*7E
1500581244.99,29895,23.88,74312.8,6.23,-9.79,-9.37,0,*7F
1500581246.24,29896,23.88,74308.5,6.23,-9.79,-9.37,0,*7C
1500581247.48,29897,23.88,74312.3,6.23,-9.75,-9.37,0,*71
1500581248.72,29898,23.88,74310.5,6.23,-9.89,-9.37,0,*7D
1500581249.94,29899,23.88,74308.5,6.23,-9.79,-9.31,0,*75
1500581251.15,29900,23.88,74312.8,6.23,-9.75,-9.31,0,*78
1500581252.42,29901,23.88,74312.0,6.23,-9.49,-9.11,0,*74
1500581253.66,29902,23.88,74308.8,6.23,-9.49,-8.97,0,*78
1500581254.9,29903,23.88,74308.0,6.23,-9.49,-8.97,0,*79
1500581256.17,29904,23.88,74312.5,6.23,-9.61,-9.11,0,*7B
1500581257.39,29905,23.88,74310.0,6.23,-9.75,-9.23,0,*7E
1500581258.65,29906,23.88,74308.8,6.23,-9.61,-9.11,0,*79
1500581259.89,29907,23.88,74310.5,6.21,-9.61,-9.15,0,*7E
1500581261.12,29908,23.88,74312.5,6.21,-9.53,-9.15,0,*70
1500581262.36,29909,23.88,74314.5,6.21,-9.53,-9.11,0,*75
1500581263.57,29910,23.88,74312.0,6.21,-9.67,-9.15,0,*7E
1500581264.8,29911,23.88,74310.3,6.21,-9.61,-9.15,0,*79
1500581266.05,29912,23.88,74312.5,6.23,-9.45,-8.97,0,*75
1500581267.3,29913,23.88,74310.8,6.23,-9.37,-8.89,0,*7E
1500581268.52,29914,23.88,74308.3,6.25,-9.45,-8.93,0,*71
1500581269.74,29915,23.88,74312.0,6.23,-9.71,-9.31,0,*78
1500581270.98,29916,23.88,74312.3,6.23,-9.89,-9.37,0,*7A
1500581272.22,29917,23.88,74310.3,6.23,-9.61,-9.19,0,*71
1500581273.46,29918,23.88,74314.5,6.23,-9.37,-8.97,0,*7A
1500581274.68,29919,23.81,74306.3,6.25,-9.45,-8.97,0,*78
1500581275.92,29920,23.88,74308.8,6.25,-9.57,-9.11,0,*7E
1500581277.12,29921,23.88,74310.3,6.25,-9.79,-9.23,0,*72
1500581278.37,29922,23.88,74308.5,6.23,-9.79,-9.37,0,*72
1500581279.58,29923,23.88,74312.0,6.25,-9.89,-9.45,0,*7F
1500581280.82,29924,23.88,74310.3,6.23,-9.93,-9.37,0,*70
1500581282.06,29925,23.88,74310.5,6.23,-9.89,-9.45,0,*7F
1500581283.3,29926,23.88,74312.8,6.23,-9.93,-9.49,0,*7B
1500581284.52,29927,23.88,74310.5,6.23,-9.79,-9.23,0,*72
1500581285.74,29928,23.88,74308.8,6.23,-9.75,-9.23,0,*71
1500581286.96,29929,23.88,74308.3,6.25,-9.49,-8.97,0,*77
1500581288.17,29930,23.81,74310.3,6.25,-9.57,-9.05,0,*7A
1500581289.41,29931,23.88,74310.3,6.25,-9.57,-9.11,0,*7E
1500581290.65,29932,23.88,74312.0,6.23,-9.49,-8.97,0,*7B
1500581291.89,29933,23.88,74310.5,6.23,-9.49,-8.97,0,*7A
1500581293.09,29934,23.88,74310.8,6.25,-9.71,-9.19,0,*77
1500581294.3,29935,23.88,74310.5,6.25,-9.61,-9.31,0,*7D
1500581295.5,29936,23.88,74308.8,6.25,-9.79,-9.19,0,*7D
1500581296.71,29937,23.88,74314.5,6.25,-9.61,-9.19,0,*75
1500581297.9,29938,23.81,74308.5,6.25,-9.75,-9.23,0,*76
1500581299.1,29939,23.81,74308.5,6.25,-9.75,-9.19,0,*7E
1500581300.29,29940,23.88,74312.8,6.25,-9.75,-9.31,0,*7A
1500581301.5,29941,23.88,74310.3,6.23,-9.75,-9.31,0,*7D
1500581302.72,29942,23.88,74312.5,6.25,-9.89,-9.37,0,*7D
1500581303.94,29943,23.88,74308.8,6.25,-9.93,-9.45,0,*72
1500581305.16,29944,23.88,74310.8,6.25,-9.93,-9.45,0,*75
1500581306.37,29945,23.81,74308.3,6.25,-9.89,-9.45,0,*7F
1500581307.59,29946,23.88,74312.5,6.25,-9.79,-9.37,0,*76
1500581308.82,29947,23.81,74308.5,6.23,-9.71,-9.23,0,*7C
1500581310.01,29948,23.81,74308.5,6.25,-9.79,-9.23,0,*7D
1500581311.23,29949,23.88,74310.3,6.25,-9.89,-9.37,0,*76
1500581312.47,29950,23.88,74312.3,6.23,-9.79,-9.37,0,*77
1500581313.72,29951,23.88,74312.5,6.25,-9.61,-9.11,0,*7D
1500581314.94,29952,23.88,74312.0,6.25,-9.71,-9.11,0,*7F
1500581316.13,29953,23.81,74310.5,6.25,-9.75,-9.31,0,*78